Temp
62 62 61 62 62 61 61 61 61 61 61 61 61 61 61 62 61 59 55 60 63 67 67 63 65 65 66 62 66 62 46 45 49 52 58 69 65 66 68 65 62 64 63 67 71
62 62 61 61 61 61 61 61 61 61 61 61 61 61 61 61 55 55 64 68 68 67 61 56 54 58 56 59 61 57 46 50 58 61 60 67 66 65 61 60 59 60 65 69 68
61 61 61 61 61 61 61 61 61 61 61 61 61 61 61 59 50 54 67 68 68 66 61 59 56 55 53 59 56 55 51 57 61 64 66 64 65 67 61 55 59 59 62 63 64
61 61 61 61 61 61 61 60 60 60 60 60 61 61 60 55 39 59 67 67 67 65 60 56 52 48 49 52 60 53 58 60 64 67 66 63 69 64 62 61 65 63 66 62 62
60 60 60 60 60 60 60 60 60 60 60 60 60 61 54 48 50 65 66 65 65 63 57 53 50 51 48 52 56 52 56 60 61 58 64 67 65 64 55 63 64 64 64 61 62
59 59 59 59 60 60 60 60 60 60 60 60 60 60 50 40 62 64 63 62 62 60 57 55 51 52 49 49 51 56 53 54 57 58 60 62 62 60 57 61 60 62 63 63 62
59 58 58 59 59 59 59 60 60 59 60 60 60 57 48 46 61 61 62 59 60 60 54 57 58 50 51 48 55 53 48 51 53 57 59 62 54 54 58 60 58 60 61 64 64
58 58 58 58 59 59 59 59 59 59 59 60 60 51 42 62 58 61 61 58 61 61 60 60 58 52 47 51 49 46 47 39 50 55 58 59 49 51 57 58 57 59 57 57 58
58 58 58 58 58 58 58 59 59 59 60 61 50 46 41 63 55 58 58 54 57 58 58 63 55 47 46 42 39 44 37 39 44 54 53 53 48 53 55 58 53 53 53 53 52
58 57 58 58 58 58 58 59 58 58 58 58 57 42 49 48 54 56 58 57 52 52 50 48 45 39 39 37 30 36 36 40 40 43 44 45 48 51 54 55 52 52 52 51 51
58 57 58 58 57 58 54 49 43 43 46 41 44 45 48 53 57 54 57 55 52 47 36 43 35 31 37 39 42 40 37 36 43 42 41 42 42 49 53 54 51 50 50 50 51
58 57 58 57 58 58 51 43 43 43 35 48 49 49 53 53 45 51 57 45 44 36 40 36 31 41 42 41 40 40 36 34 37 42 40 39 38 42 50 52 52 51 50 50 50
57 57 57 57 57 52 46 45 52 50 34 44 48 47 48 50 44 45 51 46 40 36 37 32 38 46 42 38 38 38 35 34 34 37 39 37 36 42 48 52 53 53 53 52 50
57 57 57 57 50 48 43 51 52 48 24 35 41 45 49 48 40 53 53 46 41 36 38 35 42 41 40 38 37 32 42 40 34 33 31 36 28 34 40 46 49 50 50 49 50
56 56 57 56 46 44 48 52 50 42 6 37 41 53 50 42 44 45 52 45 36 37 36 33 37 36 34 38 41 35 42 41 36 33 32 32 30 37 42 39 45 49 50 50 50
56 56 56 52 46 46 50 48 43 20 7 30 41 39 38 41 42 46 45 47 45 38 38 37 45 41 39 42 42 44 38 38 36 33 27 33 32 32 39 43 44 49 50 49 48
55 55 53 52 42 49 47 40 19 10 30 23 28 36 34 34 38 39 36 33 30 25 21 34 36 44 44 39 40 39 34 26 24 25 23 34 31 37 45 48 48 46 46 45 45
55 53 50 49 47 47 42 27 9 13 16 32 33 32 29 35 33 34 31 27 35 33 27 20 18 38 43 37 34 34 34 28 21 23 25 35 28 35 44 46 48 48 48 45 43
54 45 43 45 48 44 33 14 16 20 31 24 30 22 25 32 30 30 28 25 33 33 27 23 25 39 43 42 40 33 29 36 29 30 28 31 34 42 41 44 48 47 44 42 42
44 42 40 46 45 39 25 22 19 32 35 30 18 26 16 22 19 19 23 32 33 38 38 32 23 36 38 40 41 36 39 27 30 23 21 28 30 31 36 39 45 44 41 42 42
44 36 42 46 42 31 18 21 25 35 37 30 20 22 25 23 23 14 19 31 36 33 36 33 28 29 38 33 32 33 30 34 34 31 25 24 28 39 41 43 43 43 43 42 41
42 26 42 43 25 29 23 16 35 33 37 35 31 28 27 29 21 21 18 27 34 34 30 34 30 17 28 40 42 36 34 34 23 23 29 30 31 41 42 43 46 44 43 42 41
36 33 41 40 17 24 29 25 31 31 31 32 30 32 33 29 22 22 20 36 36 33 31 33 29 10 18 30 38 34 35 36 36 33 28 26 30 42 42 44 46 42 40 40 40
36 27 31 32 30 29 14 16 19 34 32 35 33 34 31 30 31 19 20 33 37 33 39 35 31 23 16 25 31 29 31 34 33 23 27 28 33 38 39 41 43 43 41 40 40
34 30 31 17 23 25 27 22 17 21 32 33 30 29 30 21 25 18 23 31 35 37 34 29 23 28 26 31 32 31 31 33 28 31 28 32 35 39 40 41 42 43 42 41 39
33 29 33 29 30 27 29 24 25 25 28 24 27 30 31 23 26 22 28 28 27 31 31 31 20 27 21 28 29 28 32 32 32 32 33 35 33 41 41 42 41 42 42 40 40
37 38 36 31 28 25 25 28 30 31 33 34 31 29 28 30 33 33 33 32 30 27 27 26 24 24 17 27 26 20 26 30 31 35 36 31 39 41 39 40 40 40 42 42 42
MSLP
1022.12 1022.05 1021.92 1021.90 1021.80 1021.65 1021.49 1021.30 1021.07 1020.82 1020.51 1020.29 1019.97 1019.61 1019.18 1018.84 1018.39 1017.61 1017.67 1017.90 1017.41 1016.72 1016.08 1015.78 1015.41 1015.07 1014.51 1014.27 1014.14 1014.24 1014.61 1014.24 1013.88 1013.13 1011.71 1010.02 1009.88 1008.92 1009.47 1010.56 1011.53 1011.67 1011.85 1012.17 1014.20
1022.04 1022.08 1022.03 1021.88 1021.83 1021.71 1021.50 1021.33 1021.23 1021.02 1020.81 1020.55 1020.14 1019.61 1019.10 1018.63 1018.45 1017.91 1017.78 1017.28 1016.97 1016.70 1016.58 1016.47 1016.11 1015.70 1015.11 1014.33 1013.96 1013.90 1013.94 1013.30 1012.79 1012.23 1011.43 1010.36 1010.20 1009.05 1009.72 1011.22 1012.37 1012.21 1012.08 1012.67 1013.79
1021.92 1021.95 1021.87 1021.81 1021.73 1021.64 1021.45 1021.27 1021.06 1020.89 1020.72 1020.47 1020.15 1019.58 1018.91 1018.71 1018.49 1017.91 1017.44 1017.10 1016.77 1016.59 1016.78 1016.75 1016.64 1016.22 1015.56 1014.71 1014.10 1013.50 1012.80 1012.95 1011.96 1011.42 1010.90 1010.57 1010.19 1009.29 1009.33 1010.70 1011.29 1011.95 1012.82 1013.26 1014.05
1021.74 1021.75 1021.84 1021.72 1021.69 1021.69 1021.58 1021.39 1021.22 1021.03 1020.82 1020.55 1020.16 1019.72 1018.75 1018.55 1018.58 1017.67 1017.15 1017.03 1016.62 1016.47 1016.66 1016.73 1016.85 1016.54 1015.99 1014.92 1014.34 1013.79 1012.82 1012.64 1012.09 1010.93 1010.84 1010.38 1010.02 1009.60 1009.02 1009.27 1009.90 1011.94 1011.66 1012.93 1014.02
1021.53 1021.56 1021.59 1021.64 1021.58 1021.49 1021.47 1021.30 1021.07 1020.86 1020.67 1020.39 1020.06 1019.71 1019.21 1018.68 1018.02 1017.41 1017.11 1016.92 1016.67 1016.61 1016.77 1016.89 1017.02 1016.81 1016.03 1015.11 1014.52 1013.52 1013.10 1012.74 1012.33 1011.73 1010.99 1010.18 1009.86 1010.21 1009.91 1009.55 1010.56 1011.69 1012.70 1013.46 1014.05
1021.40 1021.38 1021.41 1021.46 1021.47 1021.34 1021.25 1021.14 1020.95 1020.75 1020.59 1020.37 1020.12 1019.94 1019.50 1018.93 1017.66 1017.50 1017.41 1017.15 1017.03 1016.91 1016.81 1016.85 1016.87 1016.81 1016.39 1015.67 1014.76 1013.72 1013.80 1013.52 1012.79 1011.83 1011.64 1010.67 1009.96 1010.90 1010.95 1010.56 1011.40 1011.94 1012.92 1013.58 1014.23
1021.26 1021.17 1021.22 1021.28 1021.30 1021.22 1021.08 1020.99 1020.78 1020.57 1020.40 1020.17 1020.06 1019.96 1019.56 1018.89 1017.71 1017.59 1017.49 1017.26 1016.99 1016.92 1016.90 1016.53 1016.51 1016.81 1016.56 1015.96 1014.92 1014.51 1014.38 1013.93 1013.21 1012.20 1011.67 1010.97 1010.64 1010.66 1011.00 1011.44 1011.64 1012.78 1013.32 1013.86 1014.38
1021.05 1020.93 1021.01 1021.12 1021.11 1021.06 1020.92 1020.71 1020.52 1020.32 1020.11 1019.92 1019.86 1020.01 1019.21 1017.71 1017.55 1017.66 1017.36 1017.21 1016.76 1016.62 1016.48 1016.22 1016.25 1016.69 1016.93 1016.16 1015.69 1015.04 1014.82 1014.31 1013.26 1012.42 1012.14 1011.72 1010.41 1010.86 1011.00 1011.80 1012.16 1013.06 1013.82 1014.33 1015.12
1020.81 1020.77 1020.87 1020.95 1020.98 1020.95 1020.75 1020.43 1020.21 1020.00 1019.75 1019.70 1019.89 1019.81 1018.95 1017.54 1017.79 1017.70 1017.43 1017.34 1016.98 1016.64 1016.24 1016.08 1016.24 1016.86 1016.96 1016.77 1016.24 1015.15 1014.19 1013.71 1013.50 1012.68 1012.82 1012.01 1010.98 1011.04 1011.43 1011.34 1011.65 1013.53 1014.16 1014.56 1015.63
1020.62 1020.68 1020.74 1020.85 1020.91 1020.81 1020.44 1019.95 1019.67 1019.75 1019.30 1019.60 1019.62 1019.91 1019.03 1018.64 1018.26 1017.83 1017.22 1017.01 1017.02 1016.81 1016.67 1016.46 1016.82 1017.02 1017.03 1016.90 1015.84 1015.64 1015.08 1014.18 1013.54 1013.88 1013.49 1012.75 1012.08 1010.74 1011.10 1011.36 1011.88 1013.14 1014.22 1014.73 1015.80
1020.47 1020.58 1020.73 1020.77 1020.84 1020.70 1020.53 1019.92 1020.46 1020.39 1020.22 1020.21 1020.14 1019.95 1019.41 1018.95 1018.27 1017.74 1017.04 1016.96 1016.89 1017.12 1017.40 1017.21 1017.48 1017.19 1016.64 1016.45 1015.96 1015.61 1015.36 1014.93 1014.22 1014.12 1014.54 1014.17 1013.05 1012.15 1011.50 1011.62 1012.20 1013.00 1013.93 1014.53 1016.09
1020.43 1020.55 1020.69 1020.82 1020.83 1020.75 1020.77 1021.31 1021.72 1022.16 1021.42 1020.29 1020.08 1019.86 1019.35 1019.18 1018.78 1017.87 1017.30 1017.52 1017.51 1017.58 1017.49 1017.69 1017.27 1016.39 1016.34 1016.28 1015.88 1015.52 1015.49 1015.52 1015.77 1014.95 1014.60 1015.01 1014.03 1013.03 1011.95 1010.65 1010.95 1012.00 1013.41 1014.48 1015.78
1020.46 1020.72 1020.87 1020.95 1021.02 1021.22 1021.52 1021.79 1021.64 1021.74 1022.05 1020.65 1019.99 1019.70 1019.50 1019.50 1019.03 1018.19 1017.75 1017.77 1017.80 1017.73 1017.69 1017.73 1016.15 1015.83 1015.89 1015.94 1015.56 1015.08 1015.35 1015.44 1015.82 1015.68 1014.87 1014.80 1013.95 1012.95 1011.62 1010.75 1010.99 1012.05 1013.08 1014.32 1015.30
1020.61 1020.87 1021.14 1021.24 1021.56 1021.41 1021.86 1021.66 1021.63 1021.73 1022.42 1021.27 1020.27 1019.83 1019.47 1019.21 1019.00 1017.92 1017.58 1018.05 1017.99 1017.82 1017.62 1017.00 1016.08 1015.78 1015.45 1015.09 1015.36 1014.68 1014.33 1014.81 1015.63 1015.60 1015.07 1014.67 1014.44 1012.85 1012.67 1010.34 1010.89 1011.38 1012.64 1013.72 1014.75
1020.70 1021.05 1021.23 1021.29 1021.53 1021.80 1021.95 1021.63 1021.59 1022.04 1022.81 1021.87 1020.51 1019.57 1019.53 1019.76 1019.20 1018.10 1017.70 1017.95 1018.22 1018.09 1018.50 1017.10 1016.35 1015.85 1015.43 1014.35 1014.23 1014.20 1013.91 1014.26 1014.73 1014.92 1014.86 1014.58 1014.69 1012.45 1012.11 1011.54 1010.71 1011.08 1012.12 1013.42 1014.31
1020.90 1021.09 1021.35 1021.47 1021.90 1022.02 1021.79 1021.75 1022.13 1023.27 1024.08 1022.59 1021.25 1020.67 1020.46 1019.86 1019.33 1018.49 1018.15 1018.08 1017.94 1017.92 1017.74 1016.89 1015.94 1015.53 1014.59 1013.99 1014.06 1013.60 1013.79 1013.93 1014.37 1014.34 1013.57 1012.93 1013.10 1011.47 1010.98 1010.55 1010.96 1011.31 1012.08 1013.09 1014.14
1021.06 1021.29 1021.56 1021.66 1022.26 1021.90 1022.02 1022.40 1024.07 1024.75 1024.98 1024.19 1023.09 1022.15 1021.75 1020.91 1020.02 1019.59 1019.34 1019.05 1019.05 1018.85 1017.95 1016.99 1015.59 1013.97 1013.81 1013.78 1013.79 1013.60 1014.07 1013.91 1013.93 1013.08 1012.21 1011.62 1012.30 1009.75 1009.34 1009.18 1009.87 1011.32 1012.30 1013.43 1014.26
1021.17 1021.50 1022.12 1022.21 1022.31 1022.11 1022.48 1023.68 1025.77 1025.99 1025.82 1025.03 1024.12 1023.27 1022.71 1021.95 1021.33 1020.88 1020.47 1020.05 1019.19 1019.35 1018.98 1017.98 1015.88 1014.13 1013.43 1013.75 1013.51 1013.52 1013.67 1012.79 1012.37 1011.97 1011.83 1011.61 1010.91 1009.27 1008.80 1009.24 1009.69 1010.60 1012.29 1013.52 1014.72
1021.18 1021.99 1022.40 1022.57 1022.31 1022.44 1023.32 1024.84 1025.98 1026.19 1025.70 1025.49 1024.58 1024.21 1023.80 1023.00 1022.90 1022.35 1021.64 1021.13 1020.14 1020.03 1019.87 1018.60 1016.22 1014.44 1013.89 1013.54 1014.25 1013.16 1013.04 1012.87 1012.78 1011.46 1010.68 1010.38 1009.90 1009.34 1009.51 1009.58 1009.58 1010.29 1011.81 1013.49 1014.70
1021.46 1022.24 1022.92 1022.56 1022.53 1022.94 1024.46 1025.95 1026.09 1025.72 1025.37 1025.32 1025.51 1025.07 1024.97 1024.28 1024.26 1023.73 1022.72 1021.28 1020.64 1020.32 1020.29 1019.22 1017.29 1015.13 1014.06 1013.81 1013.38 1013.50 1012.72 1013.00 1012.91 1011.40 1010.53 1010.14 1009.84 1009.71 1009.79 1009.67 1009.66 1010.80 1011.93 1013.41 1014.67
1021.52 1022.56 1023.00 1022.79 1022.80 1023.88 1025.51 1026.48 1026.00 1025.50 1025.17 1025.12 1025.30 1025.33 1025.30 1025.23 1024.87 1024.53 1023.45 1021.70 1021.19 1020.74 1020.49 1019.58 1018.53 1016.09 1014.90 1014.45 1013.54 1013.31 1012.86 1012.90 1012.83 1012.53 1011.03 1010.60 1010.50 1009.86 1009.35 1009.33 1009.75 1010.56 1012.01 1013.28 1014.58
1021.55 1023.18 1023.11 1023.02 1024.26 1025.53 1026.22 1026.31 1025.87 1025.42 1024.97 1024.73 1024.85 1025.16 1025.23 1025.36 1025.11 1024.96 1023.83 1022.55 1021.46 1021.15 1020.18 1019.42 1018.24 1017.21 1015.71 1014.28 1013.68 1013.55 1013.20 1012.98 1012.78 1012.36 1011.57 1010.78 1010.18 1009.81 1009.19 1009.15 1009.68 1011.03 1012.26 1013.70 1014.99
1021.86 1023.20 1023.40 1023.40 1024.83 1025.94 1026.44 1026.39 1025.97 1025.44 1024.90 1024.80 1024.70 1024.71 1024.68 1025.14 1025.30 1024.55 1023.45 1022.04 1021.59 1021.32 1020.59 1019.65 1018.46 1018.08 1016.30 1015.17 1014.10 1014.01 1013.78 1012.99 1012.57 1012.33 1011.69 1010.97 1010.16 1009.53 1009.31 1008.90 1009.62 1011.08 1012.80 1013.99 1015.15
1021.82 1023.54 1024.32 1024.54 1025.02 1025.47 1026.52 1026.62 1026.11 1025.15 1024.80 1024.60 1024.40 1024.27 1024.52 1024.62 1024.62 1024.35 1023.50 1022.15 1021.47 1021.16 1020.63 1019.99 1018.64 1018.38 1017.80 1016.76 1016.02 1015.14 1014.48 1013.70 1013.02 1012.45 1011.82 1010.96 1010.24 1009.67 1009.62 1009.77 1010.40 1011.43 1012.78 1013.82 1014.74
1021.71 1022.90 1023.49 1024.83 1025.23 1025.23 1025.63 1025.75 1025.77 1025.13 1024.70 1024.38 1024.27 1024.16 1024.40 1024.53 1024.38 1024.11 1023.25 1022.40 1021.34 1021.18 1020.77 1020.56 1019.65 1018.73 1017.74 1016.69 1015.86 1015.17 1014.57 1013.85 1013.37 1012.80 1012.31 1011.49 1010.71 1010.29 1010.38 1010.50 1011.01 1011.61 1012.78 1014.26 1015.24
1021.47 1022.48 1023.40 1024.12 1024.28 1025.02 1025.10 1025.29 1024.93 1024.59 1024.38 1024.34 1024.20 1023.74 1023.97 1024.23 1023.93 1023.78 1023.27 1022.99 1022.22 1021.51 1021.23 1020.89 1020.10 1019.21 1017.88 1016.63 1015.99 1015.39 1014.66 1013.86 1013.27 1012.67 1012.10 1011.57 1011.41 1011.07 1010.90 1010.88 1011.49 1012.18 1013.04 1014.01 1014.74
1020.90 1021.26 1021.84 1023.65 1024.24 1024.63 1024.46 1024.04 1023.93 1023.85 1023.39 1023.24 1023.44 1023.59 1023.61 1023.29 1023.19 1022.97 1022.94 1022.90 1022.75 1022.73 1022.12 1021.60 1021.14 1020.03 1018.65 1017.46 1016.53 1015.56 1014.25 1013.71 1012.97 1011.89 1011.51 1011.26 1011.03 1011.21 1011.30 1011.43 1011.65 1012.03 1012.65 1013.37 1014.25
Wind_Speed
6 7 5 6 8 9 10 11 13 14 16 17 17 18 19 18 18 5 5 7 8 13 12 9 5 7 6 4 5 1 2 5 5 6 11 18 8 3 6 8 5 6 10 16 16
5 5 5 6 6 8 9 10 11 12 13 15 17 19 20 21 4 4 3 8 11 11 6 7 6 9 3 4 5 6 5 8 8 12 15 18 7 8 7 7 4 5 10 22 18
5 6 6 6 7 8 9 10 11 13 14 15 17 20 21 15 3 2 5 8 10 7 3 2 3 2 3 3 4 5 9 4 13 15 15 16 20 8 14 4 9 19 24 17 16
7 7 7 6 6 7 7 8 9 10 12 14 16 18 23 1 5 1 7 11 13 6 2 1 3 2 3 8 8 12 9 8 16 21 12 13 14 7 4 7 17 20 27 16 19
6 6 8 7 6 6 8 9 9 10 11 13 16 18 7 5 2 6 11 10 9 5 2 2 3 7 9 4 9 17 9 11 10 18 18 12 12 9 1 12 22 22 17 17 16
6 5 7 8 7 7 8 9 10 11 11 12 13 14 3 3 3 7 8 8 6 5 7 3 5 2 9 6 14 8 8 13 12 18 15 16 7 3 3 16 19 22 19 17 15
7 6 6 7 7 7 8 9 10 11 11 12 12 6 3 7 3 7 7 6 6 4 5 5 4 5 3 6 7 6 10 14 22 17 12 3 6 5 7 13 19 18 18 17 15
6 6 5 5 6 7 8 11 12 13 12 11 10 3 5 4 2 5 6 7 8 6 5 8 4 5 4 6 5 5 9 17 17 23 14 10 22 4 10 18 18 18 13 13 10
7 6 5 4 5 6 10 13 15 14 13 9 3 3 7 5 7 7 4 5 7 7 7 8 5 4 3 7 9 8 9 8 11 16 12 10 9 12 9 17 17 12 12 12 9
5 4 4 3 2 6 12 17 12 9 5 4 3 3 1 6 7 11 6 7 6 6 7 2 1 4 3 6 13 12 7 10 12 5 8 14 18 15 15 17 17 15 14 12 10
5 4 3 2 2 8 8 5 7 3 7 1 5 3 6 9 6 5 7 5 4 2 3 5 3 7 11 12 15 9 6 11 6 6 3 8 12 15 17 15 16 14 14 14 11
5 5 6 4 3 9 3 5 3 3 6 5 3 4 6 3 5 8 6 5 5 6 5 5 11 15 9 12 13 16 14 8 3 0 6 4 16 11 17 19 20 20 15 16 12
6 7 7 5 2 5 5 3 1 1 1 4 1 2 3 3 5 6 3 5 5 6 7 7 15 9 10 13 13 13 13 6 1 2 2 4 6 6 14 10 14 14 13 14 15
9 8 6 2 3 2 2 1 1 2 5 5 1 1 3 3 4 9 1 1 4 6 6 8 7 11 13 10 6 13 10 14 5 4 3 2 4 2 13 10 15 16 16 18 16
10 8 5 3 2 3 2 2 1 4 6 6 5 1 5 1 6 3 3 1 5 9 2 8 11 12 14 15 10 8 7 11 8 9 4 4 4 1 8 9 11 18 19 17 17
10 7 2 1 3 1 3 3 4 10 5 4 4 5 7 5 3 5 5 3 6 7 8 15 8 5 12 5 9 5 2 5 5 3 8 11 7 5 7 11 8 12 16 18 18
10 8 2 2 2 2 2 3 8 7 5 8 4 6 7 5 5 6 6 6 3 6 4 14 6 9 7 3 5 2 4 4 7 7 6 17 8 13 9 8 13 11 14 16 16
10 7 5 3 4 3 3 8 7 5 4 3 4 9 3 6 5 7 6 5 6 5 7 4 11 2 2 5 6 7 5 5 4 5 4 10 9 6 3 3 10 16 15 15 15
11 2 3 4 4 2 6 6 9 6 3 2 7 6 5 3 3 7 4 3 3 8 4 5 7 4 4 7 1 5 6 1 6 3 3 5 2 3 1 5 5 17 17 16 14
4 3 1 5 4 4 7 3 2 1 2 4 2 3 3 5 6 6 3 3 6 6 8 4 9 6 1 5 5 7 2 2 1 5 1 2 3 1 5 7 7 16 17 15 14
4 4 3 5 3 6 4 4 2 4 3 2 2 2 4 3 2 3 6 8 3 8 8 7 7 6 3 1 5 2 3 4 4 3 3 3 2 2 6 9 15 16 16 16 15
4 2 3 3 6 1 2 5 2 4 3 2 2 2 4 4 4 3 5 4 4 4 12 5 4 3 7 6 7 4 5 6 3 3 4 3 2 2 4 1 7 11 14 13 12
4 3 3 4 4 2 1 3 2 4 3 4 4 6 5 2 5 4 4 5 6 6 4 5 3 4 11 6 4 1 7 5 4 2 3 0 3 1 4 4 9 15 13 14 14
4 3 3 4 1 5 4 3 3 4 3 4 3 2 1 5 6 6 5 7 10 2 13 8 4 3 5 3 2 4 9 9 3 2 4 2 2 3 3 6 9 13 14 14 14
2 3 5 3 4 3 5 6 2 2 3 4 3 6 4 4 4 5 4 6 5 6 8 5 4 4 5 7 5 5 6 5 3 3 2 4 5 5 1 4 6 11 14 13 13
5 5 1 3 3 5 4 5 7 3 7 4 5 3 5 7 8 7 4 2 5 6 6 7 5 4 5 6 3 7 9 7 6 3 6 6 1 5 3 5 6 12 15 15 15
1 2 5 4 4 5 5 6 7 6 5 5 7 3 6 12 7 10 7 5 5 4 4 3 5 4 5 6 5 7 9 12 5 6 7 8 6 5 0 4 6 9 12 14 15
Wind_Direction
358 7 5 7 6 5 5 4 2 0 359 353 349 342 337 337 332 306 38 327 323 341 332 322 337 342 314 228 190 189 239 200 243 263 269 279 264 77 56 92 30 330 159 147 151
353 343 354 347 351 353 356 356 355 355 354 349 344 338 333 335 323 33 314 357 356 349 4 9 349 342 299 266 208 176 202 220 193 246 263 289 260 161 110 139 71 53 98 140 147
328 331 325 339 338 342 344 345 347 347 346 345 343 337 329 330 301 76 322 357 348 346 296 20 323 340 264 260 224 243 231 241 264 256 259 284 308 226 142 170 168 150 146 142 147
304 296 303 303 317 320 324 327 331 336 338 337 340 337 325 317 63 201 6 358 329 314 297 358 336 272 243 231 229 258 263 260 262 269 278 278 295 226 161 186 146 161 151 142 145
297 286 281 283 292 305 309 317 324 328 331 334 339 337 344 3 308 349 8 341 319 350 221 241 285 278 250 245 251 251 272 281 304 308 294 279 287 246 16 126 135 146 142 146 145
288 286 281 269 276 291 300 307 313 316 319 324 334 338 344 347 323 7 335 316 334 338 325 225 212 295 292 274 247 303 285 275 290 290 296 272 245 266 303 130 138 150 153 151 153
279 273 282 271 269 280 291 298 301 302 308 318 324 326 288 246 327 345 341 330 299 265 268 284 238 169 343 270 273 240 238 282 272 272 288 269 254 211 157 146 145 157 157 161 163
278 286 277 282 279 290 297 296 294 294 300 306 311 338 255 264 352 338 339 324 319 305 252 262 230 220 215 301 273 227 228 242 263 266 271 222 250 185 175 155 153 159 144 134 125
259 276 261 273 278 296 297 292 288 293 289 292 313 175 287 315 3 320 306 296 301 303 306 285 97 213 259 238 265 240 223 226 257 251 262 260 237 181 213 161 141 155 152 134 121
246 259 237 253 289 306 298 292 281 303 291 240 257 353 277 323 322 300 272 263 257 283 329 222 176 238 264 217 229 234 245 224 225 22 341 283 272 179 186 170 164 161 158 142 158
230 217 202 156 317 297 333 357 16 1 27 301 280 252 287 296 302 279 280 320 285 287 265 271 228 243 240 232 241 284 221 272 206 85 84 305 312 203 191 174 163 160 161 151 167
198 177 154 144 264 306 345 73 142 179 326 294 236 260 277 20 302 320 359 357 352 303 285 311 258 248 260 280 246 238 255 242 276 158 117 326 300 315 212 187 170 162 169 161 156
168 153 147 171 316 27 85 99 61 0 273 290 177 316 302 346 303 287 1 322 282 284 288 258 258 288 201 283 253 240 242 213 311 230 87 305 252 297 236 189 166 165 160 156 164
150 145 153 133 40 170 52 132 295 101 70 315 301 247 323 284 269 292 169 301 307 302 306 264 310 271 253 254 259 264 218 220 197 179 236 170 278 255 299 197 175 165 168 163 162
140 140 146 155 211 70 212 323 298 63 42 281 312 174 267 187 261 277 171 276 252 263 304 257 307 318 309 248 228 254 187 216 190 185 174 155 253 158 183 282 206 178 174 166 159
132 137 146 349 49 305 330 338 51 44 277 338 303 351 355 293 266 276 302 215 246 273 243 259 247 217 239 285 245 270 231 275 194 196 234 185 165 199 190 215 213 190 171 163 150
110 88 90 46 190 307 2 46 39 108 320 305 331 343 328 289 312 20 321 311 289 328 350 318 262 234 202 253 286 141 221 227 215 187 227 165 180 244 209 155 190 197 168 152 142
117 82 40 63 342 5 51 52 76 233 239 318 318 305 298 5 322 336 311 313 282 226 289 259 323 266 216 207 211 201 220 256 220 180 184 151 209 264 169 151 144 178 177 156 152
123 79 54 340 344 36 69 61 197 208 244 19 330 45 319 8 17 352 305 251 286 33 316 307 274 316 236 194 210 262 213 124 311 256 172 169 275 280 131 209 224 177 157 166 161
110 91 348 316 358 62 74 208 184 214 328 79 125 32 315 307 17 26 292 277 337 45 16 298 298 273 318 25 224 226 198 55 77 292 86 56 337 256 207 223 125 159 161 163 152
83 72 268 347 50 47 136 212 221 224 242 144 229 301 277 306 280 279 258 303 11 326 336 262 220 282 346 332 307 248 250 256 158 250 330 120 252 199 197 196 175 170 165 162 152
113 65 295 36 58 51 160 188 252 221 183 245 160 211 226 280 284 278 245 228 48 1 313 255 274 264 227 263 151 255 256 209 145 273 261 247 215 294 264 160 155 153 140 133 136
109 131 329 83 136 196 209 296 269 194 200 196 233 199 213 277 304 239 277 292 331 346 319 343 261 6 340 356 360 218 338 268 287 87 234 6 309 358 279 84 147 145 143 142 141
102 115 339 32 231 142 148 258 286 217 219 215 262 298 307 278 212 271 293 293 319 210 311 295 294 158 190 206 191 297 318 323 253 81 312 264 345 347 14 94 127 144 154 163 161
57 194 189 208 266 165 151 158 174 257 215 202 285 202 200 278 283 242 274 300 295 3 345 18 294 327 263 258 229 251 261 297 290 236 155 299 23 329 293 171 127 141 145 155 162
138 136 51 164 95 120 187 227 192 249 162 249 216 229 215 230 202 259 254 273 264 331 339 338 295 311 293 280 274 273 258 244 239 243 250 285 186 287 334 90 123 146 155 162 174
206 69 113 166 150 119 213 207 207 178 219 198 206 228 265 254 237 248 232 230 249 321 310 318 315 317 281 338 331 298 223 234 236 210 179 224 190 178 293 183 183 163 169 170 175